Flag for Mozambique Weather past 2 weeks in Maputo, Mozambique

Now
68 °F

Clear.


Feels Like: 68 °F
Forecast: 58 / 76 °F
Wind: 15 mph from South

Location: Maputo / Mavalane

Current Time: Aug 30, 2014 at 8:25:12 PM

Latest Report: Aug 30, 2014 at 7:00 PM


Visibility: 10 mi

Pressure: 30.27 "Hg

Humidity: 49%

Dew point: 48 °F

Location of MaputoLocation

Historic Weather in Maputo — Graph

°F

Maputo temperature yesterday

Maximum temperature yesterday: 75 °F (at 11:00 AM)
Minimum temperature yesterday: 59 °F (at 11:00 PM)
Average temperature yesterday: 68 °F

Past Weeks' High & Low Weather Summary

 TemperatureHumidityPressure
High93 °F (Aug 20, 1:00 PM)100% (Aug 16, 5:00 PM)30.45 "Hg (Aug 16, 5:00 PM)
Low45 °F (Aug 30, 5:00 AM)15% (Aug 30, 2:00 PM)29.65 "Hg (Aug 28, 4:00 PM)
Average70 °F61%30.07 "Hg
* Reported Aug 15 7:00 PM — Aug 30 7:00 PM, Maputo, Weather by CustomWeather, © 2014

Note: Actual official high and low records may vary slightly from our data, if they occured in-between our weather recording intervals... More about our weather records

Advertising

Maputo weather history for previous 24 hours

 ConditionsComfort  
Time TempWeatherWind HumidityBarometerVisibility
7:00 PM
Aug 30
68 °FClear.15 mph49%30.27 "Hg10 mi
6:00 PM68 °FClear.13 mph49%30.27 "Hg10 mi
4:00 PM73 °FPassing clouds.16 mph41%30.24 "HgN/A
3:00 PM77 °FPassing clouds.14 mph22%30.24 "HgN/A
2:00 PM79 °FPassing clouds.17 mph15%30.24 "HgN/A
1:00 PM77 °FSunny.14 mph17%30.24 "Hg10 mi
12:00 PM75 °FSunny.13 mph18%30.27 "Hg10 mi
11:00 AM73 °FSunny.18 mph17%30.27 "Hg10 mi
10:00 AM70 °FSunny.15 mph21%30.30 "Hg10 mi
9:00 AM82 °FScattered clouds.9 mph74%30.07 "HgN/A
7:00 AMN/ASunny.5 mphN/AN/A10 mi
6:00 AM45 °FSunny.3 mph66%30.24 "Hg10 mi
5:00 AM45 °FClear.3 mph66%30.21 "Hg10 mi
4:00 AM46 °FClear.2 mph62%30.21 "Hg10 mi
3:00 AM48 °FClear.5 mph58%30.21 "Hg10 mi
2:00 AM50 °FClear.3 mph62%30.18 "Hg10 mi
1:00 AM52 °FClear.5 mph58%30.21 "Hg10 mi
12:00 AM54 °FClear.7 mph51%30.18 "Hg10 mi
11:00 PM
Aug 29
59 °FClear.10 mph45%30.18 "Hg10 mi
9:00 PM63 °FClear.14 mph30%30.12 "Hg10 mi
8:00 PM63 °FClear.15 mph22%30.09 "Hg10 mi
Weather by CustomWeather, © 2014

See weather overviewHow to use our weather pages